Wind_Speed
28 29 29 30 31 30 28 26 25 26 27 28 28 28 29 29 29 31 28 26 24 24 24 24 23 23 22 21 21 19 19 18 17 16 15 14 13 12 11 10 10 9 8 8 7 7 6 5 5
30 31 32 33 33 32 29 28 28 28 29 29 29 29 30 30 31 32 29 28 27 26 26 26 25 25 24 23 22 21 20 19 19 18 17 16 15 13 12 11 11 10 10 9 8 8 7 6 6
32 33 34 35 34 33 31 29 30 30 31 31 31 31 32 32 33 33 31 30 30 28 28 28 27 27 26 25 24 23 22 21 20 19 18 18 17 15 14 13 13 12 11 11 10 9 8 8 7
35 36 37 38 36 33 32 31 33 34 33 33 33 33 34 33 34 33 32 32 32 31 30 29 29 29 28 27 26 25 24 23 22 21 20 20 19 17 16 15 14 13 13 12 11 10 10 9 8
38 39 40 40 38 35 34 34 35 37 36 35 35 36 35 35 34 34 35 34 34 33 32 31 31 31 30 29 28 27 26 25 24 23 22 21 20 19 18 17 16 15 14 13 12 11 11 10 9
40 41 42 42 39 37 36 36 37 38 38 37 38 38 37 37 36 36 36 36 36 35 34 33 33 33 32 31 30 29 28 27 26 25 24 23 22 21 19 19 17 16 15 14 13 13 12 12 11
41 43 44 43 41 40 38 39 39 40 40 39 39 40 39 39 38 38 38 38 38 37 36 35 35 35 34 33 32 31 30 29 28 27 26 25 23 22 21 20 19 18 17 16 15 15 14 13 12
43 44 44 44 43 41 40 41 42 42 42 41 41 42 41 40 40 40 40 40 39 38 38 37 37 36 36 35 34 33 32 31 30 29 28 27 25 24 23 22 21 19 18 18 17 16 16 15 14
44 45 45 44 45 44 43 43 43 44 44 43 43 44 44 42 42 42 41 41 41 40 40 40 39 38 37 37 37 36 34 33 32 31 30 28 27 26 25 23 22 21 20 20 19 18 17 16 15
45 46 44 44 45 45 45 45 45 45 46 45 45 45 45 44 44 44 43 43 43 43 42 42 41 40 39 39 38 37 36 35 34 33 31 30 29 27 26 25 23 23 22 21 20 19 18 18 17
44 44 43 43 44 46 46 46 46 47 48 47 47 46 47 46 45 45 44 44 44 44 44 44 43 42 41 40 40 39 38 36 35 34 33 32 31 29 28 26 25 24 23 22 21 20 20 19 19
42 42 42 43 44 45 47 47 47 49 49 48 48 47 48 48 47 47 46 45 45 46 46 46 45 44 43 42 41 40 39 38 37 36 35 33 32 30 29 28 27 25 25 24 23 22 21 21 20
41 41 42 43 44 45 47 47 48 48 50 50 50 49 50 50 49 49 49 48 47 47 47 47 47 46 45 44 43 42 41 40 39 38 36 35 33 32 31 30 28 27 26 25 24 23 22 22 22
40 40 40 41 42 44 47 47 48 48 48 51 51 50 50 51 51 51 51 50 49 49 49 48 48 48 47 46 45 43 42 42 41 40 38 37 35 34 33 32 31 29 27 26 26 24 24 23 23
39 40 39 40 41 42 45 48 47 47 49 51 51 50 51 51 52 52 52 51 51 50 50 49 49 50 49 48 47 46 44 43 42 42 40 38 37 36 34 33 32 31 29 28 27 26 25 24 23
38 39 39 39 41 41 44 46 45 45 48 50 50 50 51 50 51 52 53 52 52 51 51 50 50 51 51 50 49 48 46 44 43 43 42 40 38 37 36 35 34 32 31 30 29 27 26 25 24
35 38 38 38 40 40 43 45 43 44 47 48 49 50 50 50 52 53 53 53 53 52 52 51 51 52 52 52 51 50 48 46 45 43 43 42 40 38 37 36 35 34 33 32 30 29 28 27 26
34 35 36 37 38 40 42 43 41 42 44 46 47 48 49 50 50 52 52 53 53 53 53 52 52 53 53 53 52 51 50 49 46 45 44 43 42 40 38 36 36 35 34 33 32 31 30 29 28
34 35 36 36 37 40 41 41 40 40 41 44 45 46 47 48 49 50 52 52 53 53 53 52 53 53 54 54 53 52 51 50 48 46 45 44 43 41 40 37 37 36 36 35 34 32 31 31 30
34 35 35 36 35 38 40 41 38 39 39 42 43 43 45 46 49 48 49 50 51 51 52 52 52 53 53 53 53 52 51 51 49 47 46 45 44 43 41 39 38 38 37 36 35 34 33 32 31
32 33 33 34 34 35 39 40 37 37 38 39 40 41 42 43 44 46 47 48 50 50 50 51 52 52 53 53 53 53 52 51 50 49 47 46 45 43 42 40 39 39 38 37 36 35 34 33 32
32 32 33 33 33 33 35 39 35 35 36 36 38 38 39 40 42 43 44 46 48 48 48 49 50 51 52 53 54 54 53 51 50 49 48 46 45 44 43 42 40 40 39 38 37 36 35 34 33
33 33 33 33 33 34 32 36 34 33 34 35 35 36 37 39 41 42 43 44 45 46 47 47 50 51 52 53 53 54 53 52 50 49 49 48 46 45 44 43 41 40 40 39 39 38 36 35 34
33 32 32 33 33 34 31 33 33 31 31 32 33 34 36 37 38 39 40 42 43 45 46 48 50 50 51 52 53 53 53 52 51 50 49 48 47 46 44 43 42 41 41 40 40 39 38 37 35
31 32 32 31 32 32 30 32 31 28 28 29 31 33 35 35 36 37 38 40 42 44 46 47 48 50 51 52 53 53 51 52 52 50 50 49 48 47 45 43 42 42 42 41 41 40 39 38 36
31 31 31 31 30 30 29 30 29 28 28 29 31 32 34 36 36 37 38 39 41 43 44 45 47 48 51 52 53 53 51 50 51 50 49 49 48 47 46 45 43 42 42 42 41 41 40 39 38
32 31 30 32 32 32 31 30 28 28 29 30 31 31 32 35 36 37 39 40 41 42 43 45 47 48 50 52 53 54 53 51 51 50 49 49 49 48 47 46 44 44 43 42 42 42 41 40 39
32 31 30 30 31 32 31 30 28 28 29 30 32 33 33 35 35 37 39 40 40 42 43 44 47 49 51 52 53 53 53 52 51 51 49 49 49 49 48 47 45 45 44 43 42 42 42 41 40
32 31 31 31 32 33 33 31 29 30 31 31 32 33 34 36 37 37 38 40 41 42 44 46 47 48 50 51 53 54 54 53 52 52 50 49 49 49 48 48 46 45 45 44 44 42 42 42 41
34 32 31 32 34 34 34 32 29 31 32 33 34 35 36 38 39 39 40 40 42 43 44 46 47 48 49 51 52 54 54 54 52 53 51 49 49 50 49 48 47 46 45 45 44 44 43 42 41
Wind_Direction
260 260 259 258 258 257 257 256 255 252 251 250 250 249 249 250 250 250 249 246 243 241 240 240 239 239 239 238 238 238 237 236 236 236 236 238 242 246 248 246 244 246 254 260 263 270 273 272 275
260 259 258 258 257 258 258 256 254 253 251 251 251 251 250 249 250 252 250 247 243 241 240 240 240 239 240 239 239 238 237 236 236 236 236 238 240 243 245 244 244 247 253 258 261 265 265 266 271
261 259 258 258 258 259 260 259 257 254 252 251 251 250 250 248 249 251 250 247 244 242 240 240 239 239 240 239 239 238 238 237 237 236 237 238 239 241 245 244 245 248 253 256 258 260 259 263 267
262 260 258 259 259 259 259 258 258 255 253 251 251 251 251 249 250 251 250 247 245 243 242 240 239 239 239 239 238 238 238 237 237 237 237 238 239 241 244 245 246 249 253 255 256 256 257 260 263
262 261 260 260 260 260 258 256 256 256 254 252 251 251 252 252 250 248 247 247 245 244 243 241 241 240 238 238 237 237 238 237 237 237 237 238 239 241 243 245 247 249 251 253 254 255 256 257 260
262 261 260 261 260 259 258 256 255 256 254 252 251 250 251 250 250 247 246 245 245 244 243 241 241 240 239 237 237 237 237 237 237 237 238 239 240 241 242 244 246 247 249 251 252 254 255 256 258
261 260 261 261 260 259 259 257 256 255 254 253 252 251 250 249 250 249 247 245 245 244 244 242 241 241 239 238 237 237 237 237 237 237 238 239 240 241 242 243 245 246 247 249 251 253 255 256 258
261 260 260 260 259 258 257 256 255 254 254 252 250 250 249 248 248 249 247 246 245 244 244 243 242 241 240 239 238 237 236 237 237 237 238 240 240 241 241 242 244 245 247 248 251 253 255 256 259
261 259 259 260 260 259 258 257 255 254 253 252 250 249 249 247 247 248 247 246 245 244 244 243 242 241 240 239 239 237 236 236 237 237 237 239 240 240 240 242 244 245 246 248 251 254 255 256 259
261 260 260 260 261 261 259 258 256 254 253 252 250 249 248 247 247 247 247 246 245 244 244 243 242 241 240 239 239 238 237 237 237 237 237 238 240 240 240 241 243 245 246 247 251 254 254 256 259
262 261 260 260 261 261 260 257 255 254 252 251 250 249 248 247 246 247 247 246 245 244 243 242 242 241 240 239 238 238 237 237 237 237 237 238 239 240 240 241 242 244 246 248 250 254 254 256 258
265 263 261 261 260 260 260 257 255 253 252 250 249 248 248 247 246 247 245 244 244 243 243 242 242 241 240 239 238 238 237 236 237 237 237 237 239 240 241 241 242 244 246 248 250 253 254 256 258
266 265 263 261 259 258 258 258 257 256 253 250 248 247 247 246 245 245 244 243 243 242 242 241 241 240 240 239 238 237 236 236 237 237 237 237 238 240 241 241 242 244 246 248 250 253 254 257 259
267 266 264 262 261 260 258 258 257 256 254 251 249 247 246 247 246 244 244 243 243 242 241 240 239 239 239 238 238 237 237 237 237 237 237 237 238 239 240 241 241 243 245 247 250 253 254 257 259
269 268 267 264 263 261 259 257 257 256 254 252 249 248 247 246 245 244 243 243 242 242 241 239 238 238 238 238 237 237 237 237 237 237 237 238 238 239 240 240 241 243 245 248 250 252 255 258 260
271 269 271 266 265 262 261 261 258 257 256 253 250 248 247 246 245 244 243 242 242 241 240 239 238 237 237 237 237 237 237 238 237 237 237 238 238 238 240 240 241 242 245 247 250 252 255 258 260
274 272 274 270 266 265 265 264 259 257 256 254 250 249 248 247 245 244 243 242 241 241 241 239 237 237 236 236 236 236 236 237 237 236 237 237 237 238 239 240 240 242 244 247 249 251 255 258 261
278 277 276 274 270 268 267 265 262 257 256 254 251 249 248 247 246 245 242 241 240 239 239 239 238 236 236 235 236 236 235 236 236 236 236 237 237 238 239 240 240 241 244 247 249 252 255 258 260
280 279 279 279 274 270 267 265 263 259 257 254 253 252 249 248 246 243 243 241 240 239 238 238 237 236 235 235 235 235 235 235 236 236 236 237 237 238 239 241 241 242 244 247 249 252 255 257 260
281 281 282 279 278 274 270 266 264 260 258 256 255 252 249 247 243 242 242 241 241 240 238 237 235 234 234 233 234 234 234 234 235 235 236 237 237 238 240 241 241 242 244 247 250 252 255 257 260
284 283 284 284 281 276 275 270 265 261 258 256 254 252 250 244 243 242 241 241 240 239 238 236 234 232 232 232 233 233 233 233 234 234 235 236 237 238 240 241 242 243 244 247 250 252 254 257 259
284 283 284 284 283 280 278 277 269 263 259 256 253 252 250 245 244 242 242 241 240 239 238 235 233 231 231 231 231 232 233 233 234 235 235 236 237 238 239 241 242 243 244 247 250 252 254 256 259
286 284 282 281 280 280 278 279 275 267 263 259 255 251 248 247 245 243 242 241 240 239 238 236 233 230 230 231 232 231 232 233 233 234 235 236 237 238 239 241 242 243 245 247 250 252 254 256 259
288 284 282 280 279 279 279 278 276 270 265 260 255 252 248 247 246 245 242 241 241 239 237 237 233 230 230 230 231 231 230 231 233 234 235 236 237 237 239 240 242 243 245 247 250 251 253 256 259
289 287 285 282 279 280 279 277 277 273 266 260 258 256 249 246 246 245 242 240 240 239 238 236 233 231 231 231 230 231 230 231 232 234 235 236 236 237 239 241 242 244 245 247 249 251 253 256 259
291 288 285 282 280 278 277 278 277 271 267 262 259 257 251 246 244 244 243 241 239 239 237 235 234 233 232 231 230 230 229 230 231 232 234 235 236 237 239 241 242 244 245 247 249 251 253 256 259
292 288 285 280 276 276 276 278 274 271 267 262 259 257 253 248 246 245 244 244 241 238 236 235 235 234 233 232 230 229 229 230 232 233 233 235 236 237 238 240 242 244 245 247 249 251 253 256 259
290 288 283 279 278 277 277 278 278 273 270 266 263 259 255 250 248 246 245 242 241 240 237 235 234 234 233 232 231 229 230 231 232 232 233 234 235 236 238 240 242 243 245 247 249 251 254 256 259
287 285 282 277 276 277 279 278 276 272 269 267 265 261 256 252 248 245 244 242 242 241 238 236 234 233 232 231 231 230 230 231 231 233 234 234 235 237 238 240 242 243 245 247 249 251 254 256 258
285 284 280 276 274 274 276 278 275 272 269 267 265 262 258 255 251 247 245 244 243 241 239 238 235 234 233 232 231 230 230 231 232 233 235 235 235 236 238 240 241 243 245 247 249 251 254 256 258
Height
5809 5809 5810 5811 5812 5813 5815 5819 5821 5823 5824 5825 5827 5829 5831 5833 5834 5836 5838 5840 5843 5845 5846 5848 5849 5851 5853 5854 5856 5857 5859 5860 5861 5862 5863 5863 5864 5865 5865 5866 5866 5867 5867 5867 5867 5867 5867 5866 5866
5803 5803 5804 5804 5805 5807 5810 5814 5816 5818 5819 5820 5822 5824 5826 5827 5828 5829 5833 5836 5838 5840 5842 5844 5846 5848 5849 5851 5853 5854 5856 5857 5858 5859 5860 5861 5862 5863 5864 5864 5865 5865 5866 5866 5866 5866 5866 5865 5865
5796 5796 5796 5797 5799 5801 5806 5809 5810 5811 5813 5815 5817 5818 5820 5822 5823 5824 5828 5830 5833 5836 5838 5840 5842 5844 5845 5847 5849 5851 5852 5854 5855 5857 5858 5859 5860 5861 5862 5862 5863 5864 5864 5864 5865 5864 5864 5864 5864
5788 5788 5789 5790 5792 5796 5800 5803 5803 5804 5806 5808 5810 5812 5814 5817 5818 5820 5822 5825 5828 5831 5833 5835 5837 5839 5841 5843 5845 5847 5849 5851 5852 5854 5855 5856 5857 5858 5859 5860 5861 5862 5862 5863 5863 5863 5863 5863 5863
5778 5779 5780 5782 5785 5790 5792 5795 5796 5797 5799 5801 5803 5805 5807 5810 5812 5814 5816 5819 5822 5825 5828 5830 5832 5834 5837 5839 5841 5843 5845 5847 5849 5850 5852 5853 5854 5856 5857 5858 5859 5860 5860 5861 5861 5861 5861 5861 5861
5769 5769 5771 5773 5778 5782 5785 5787 5788 5789 5791 5794 5796 5798 5800 5803 5805 5807 5810 5812 5815 5818 5822 5825 5827 5829 5832 5834 5836 5839 5841 5843 5845 5847 5848 5850 5851 5853 5854 5855 5856 5857 5858 5858 5859 5859 5859 5859 5859
5760 5759 5761 5765 5769 5773 5776 5778 5780 5781 5783 5786 5788 5789 5792 5795 5798 5800 5803 5806 5809 5812 5815 5819 5821 5823 5826 5829 5831 5834 5836 5838 5840 5843 5844 5846 5848 5849 5851 5852 5853 5854 5855 5856 5856 5857 5857 5857 5857
5748 5749 5751 5755 5758 5763 5766 5767 5770 5771 5774 5777 5779 5781 5784 5788 5790 5792 5795 5798 5802 5805 5808 5812 5815 5817 5820 5823 5826 5828 5831 5833 5836 5838 5840 5842 5844 5845 5847 5848 5850 5851 5852 5853 5854 5854 5854 5855 5855
5736 5738 5740 5745 5748 5752 5755 5757 5760 5761 5763 5766 5769 5771 5775 5778 5781 5784 5787 5790 5794 5798 5801 5804 5808 5811 5814 5817 5820 5823 5825 5828 5830 5833 5836 5838 5840 5841 5843 5845 5846 5848 5849 5850 5851 5851 5852 5852 5852
5725 5726 5731 5735 5738 5740 5743 5745 5748 5749 5752 5756 5758 5761 5764 5768 5771 5775 5778 5782 5786 5789 5793 5796 5800 5804 5807 5810 5813 5816 5819 5822 5825 5828 5831 5833 5835 5837 5839 5841 5842 5844 5845 5846 5847 5848 5848 5849 5849
5714 5716 5721 5724 5726 5727 5729 5733 5735 5736 5740 5744 5747 5751 5753 5758 5761 5765 5769 5773 5777 5780 5784 5788 5792 5796 5799 5803 5806 5810 5813 5816 5819 5822 5825 5828 5830 5832 5834 5836 5838 5840 5841 5842 5844 5844 5845 5845 5845
5703 5706 5709 5712 5713 5714 5716 5719 5722 5724 5728 5732 5735 5739 5742 5746 5750 5754 5759 5762 5767 5771 5775 5779 5783 5787 5791 5795 5799 5803 5806 5810 5813 5816 5819 5822 5825 5827 5829 5831 5833 5835 5837 5838 5839 5840 5841 5841 5842
5692 5695 5697 5699 5701 5702 5703 5706 5708 5711 5715 5717 5721 5725 5729 5733 5738 5742 5746 5751 5755 5760 5764 5769 5774 5778 5783 5787 5791 5795 5799 5803 5806 5809 5812 5816 5819 5821 5824 5826 5828 5830 5832 5834 5835 5836 5837 5837 5838
5682 5684 5685 5687 5688 5689 5690 5693 5695 5699 5702 5704 5708 5712 5716 5720 5725 5730 5735 5740 5745 5749 5754 5758 5764 5769 5773 5778 5783 5787 5791 5795 5799 5802 5805 5809 5812 5815 5818 5820 5823 5825 5827 5829 5830 5831 5832 5833 5833
5672 5673 5674 5675 5676 5677 5677 5680 5683 5687 5688 5691 5695 5699 5703 5708 5712 5717 5723 5728 5733 5738 5742 5748 5753 5759 5763 5768 5773 5778 5783 5787 5791 5795 5798 5802 5805 5809 5812 5814 5817 5819 5821 5823 5825 5826 5827 5828 5829
5662 5662 5663 5666 5665 5665 5666 5668 5673 5674 5674 5677 5681 5685 5689 5695 5700 5704 5710 5716 5721 5726 5731 5736 5742 5748 5753 5758 5764 5769 5774 5779 5783 5787 5791 5795 5798 5802 5805 5808 5811 5813 5816 5818 5819 5821 5822 5823 5824
5652 5652 5653 5655 5655 5654 5653 5656 5662 5662 5662 5665 5668 5672 5676 5681 5686 5691 5696 5703 5709 5714 5720 5725 5731 5737 5743 5748 5754 5759 5765 5770 5775 5779 5783 5787 5791 5794 5798 5801 5804 5807 5809 5812 5814 5815 5817 5818 5818
5644 5643 5643 5644 5644 5643 5643 5645 5649 5650 5650 5652 5656 5660 5663 5668 5673 5677 5683 5689 5696 5702 5708 5713 5719 5726 5732 5738 5744 5749 5755 5760 5765 5770 5775 5779 5783 5787 5790 5794 5797 5800 5803 5805 5807 5809 5810 5812 5812
5634 5634 5634 5635 5634 5632 5632 5633 5637 5638 5639 5642 5644 5647 5651 5656 5660 5664 5670 5676 5682 5689 5695 5702 5708 5714 5720 5727 5733 5739 5745 5751 5756 5762 5767 5771 5775 5779 5783 5787 5790 5793 5796 5798 5801 5803 5804 5805 5806
5627 5626 5626 5626 5625 5622 5622 5623 5627 5628 5629 5632 5634 5637 5641 5644 5648 5653 5659 5664 5670 5677 5683 5690 5696 5703 5710 5716 5723 5729 5735 5741 5747 5752 5757 5762 5767 5771 5775 5779 5783 5786 5789 5791 5794 5796 5797 5799 5800
5621 5619 5617 5616 5615 5614 5612 5614 5618 5619 5620 5622 5624 5627 5630 5634 5638 5643 5648 5653 5659 5665 5672 5678 5685 5692 5699 5706 5712 5718 5724 5730 5736 5742 5748 5753 5758 5763 5767 5771 5775 5778 5781 5784 5787 5789 5791 5792 5793
5613 5612 5610 5608 5606 5605 5605 5601 5610 5611 5612 5614 5616 5619 5622 5626 5629 5633 5638 5643 5648 5655 5660 5667 5673 5680 5687 5694 5701 5708 5714 5721 5728 5734 5739 5744 5750 5754 5759 5763 5767 5770 5773 5776 5779 5781 5783 5785 5786
5606 5605 5603 5601 5598 5598 5599 5595 5600 5603 5604 5606 5608 5611 5614 5617 5621 5625 5629 5634 5639 5645 5651 5656 5662 5669 5676 5683 5690 5698 5705 5712 5718 5724 5729 5735 5740 5745 5750 5754 5758 5762 5765 5769 5771 5774 5776 5778 5779
5600 5598 5596 5594 5592 5592 5594 5590 5591 5596 5597 5599 5601 5603 5606 5609 5613 5617 5620 5625 5630 5635 5640 5645 5652 5659 5666 5673 5679 5687 5695 5701 5707 5713 5719 5725 5731 5736 5741 5746 5750 5754 5757 5760 5763 5766 5768 5770 5771
5594 5591 5589 5587 5585 5585 5587 5584 5586 5589 5590 5592 5594 5596 5599 5602 5605 5608 5612 5616 5621 5625 5631 5636 5642 5649 5656 5662 5669 5677 5684 5691 5697 5704 5710 5716 5722 5728 5733 5737 5741 5745 5748 5752 5754 5757 5760 5762 5763
5588 5586 5584 5581 5579 5579 5580 5579 5582 5582 5583 5585 5587 5589 5591 5594 5597 5601 5604 5608 5612 5617 5622 5627 5633 5640 5646 5652 5659 5666 5674 5680 5687 5693 5700 5706 5713 5718 5723 5728 5732 5736 5739 5743 5746 5749 5751 5753 5755
5581 5580 5578 5575 5573 5572 5573 5574 5576 5577 5577 5578 5579 5581 5583 5586 5589 5592 5596 5599 5603 5608 5613 5618 5623 5629 5635 5642 5649 5656 5664 5670 5677 5684 5689 5696 5702 5708 5713 5718 5722 5727 5730 5734 5737 5740 5742 5745 5747
5576 5573 5572 5569 5567 5565 5566 5567 5569 5569 5570 5571 5572 5574 5576 5578 5581 5584 5587 5590 5594 5599 5603 5608 5614 5619 5625 5631 5638 5645 5653 5660 5667 5673 5679 5685 5692 5697 5703 5708 5712 5717 5721 5724 5728 5731 5733 5736 5738
5569 5567 5564 5562 5561 5560 5558 5562 5562 5562 5562 5563 5564 5565 5567 5569 5572 5575 5578 5582 5586 5589 5594 5598 5603 5608 5615 5621 5628 5635 5642 5649 5656 5663 5669 5675 5681 5687 5692 5697 5702 5706 5711 5714 5718 5721 5724 5726 5728
5560 5559 5558 5556 5555 5553 5551 5555 5556 5555 5555 5555 5556 5556 5558 5560 5563 5566 5569 5572 5576 5579 5584 5588 5593 5598 5604 5610 5617 5624 5631 5638 5645 5652 5659 5664 5670 5676 5681 5686 5691 5696 5700 5704 5708 5711 5714 5716 5719